IRNSS-1D 1 40547U 15018A 21065.50816439 -.00000281 00000-0 00000-0 0 9997 2 40547 28.7181 272.9381 0019814 178.6707 7.5747 1.00272045 21655 PSLV R/B 1 40548U 15018B 21065.15805691 .00003846 00000-0 54765-3 0 9996 2 40548 19.1119 18.7545 5983733 107.1800 323.5548 4.08474666 86706